Regional Weather Roundup
Issued by NWS

Home | Current Version | Previous Version | Graphics & Text | Print | Product List | Glossary On
Versions: 1 2 3 4 5 6 7 8 9 10 11 12 13 14 15 16 17 18 19 20 21 22 23 24 25 26 27
000
ASUS45 KBOU 170207
RWRCO

WEATHER ROUNDUP FOR COLORADO
NATIONAL WEATHER SERVICE DENVER/BOULDER CO
800 PM MDT MON OCT 16 2017

NOTE: "FAIR" INDICATES FEW OR NO CLOUDS BELOW 12000 FEET WITH NO
SIGNIFICANT WEATHER AND/OR OBSTRUCTIONS TO VISIBILITY.

COZ001>005-013-030-031-170300-
...NORTHWEST COLORADO...

CITY           SKY/WX    TMP DP  RH WIND       PRES   REMARKS
CRAIG          FAIR      48   3  15 VRB3      30.36R
HAYDEN         FAIR      48   5  17 SW3       30.39R
MEEKER         FAIR      40  17  39 NE3       30.38R
RABBIT EARS PA FAIR      37  -2  18 W8        30.55S
STEAMBOAT SPGS FAIR      48   4  16 E5        30.39R
WALDEN         FAIR      41   0  17 S5        30.44S
$$

COZ006>008-011-170300-
...WEST CENTRAL VALLEYS...

CITY           SKY/WX    TMP DP  RH WIND       PRES   REMARKS
GRAND JUNCTION FAIR      46  12  25 CALM      30.34R
MONTROSE       FAIR      47  16  29 SE8       30.40R
EAGLE          FAIR      47   9  21 E9        30.41R
RIFLE          FAIR      55   8  15 S9        30.35R
DELTA          FAIR      54  15  21 NE9       30.34R
NUCLA          NOT AVBL
$$

COZ017>023-064>068-170300-
...SOUTHWEST COLORADO...

CITY           SKY/WX    TMP DP  RH WIND       PRES   REMARKS
DURANGO        FAIR      57  15  19 SW6       30.39R
CORTEZ         FAIR      45  21  38 E7        30.37R
PAGOSA SPRINGS FAIR      45  15  29 CALM      30.46R
TELLURIDE      NOT AVBL
WOLF CREEK PAS FAIR      36   9  32 S15G21    30.70S
$$

COZ009-010-012-014-032>034-037-058>063-170300-
...CENTRAL COLORADO...

CITY           SKY/WX    TMP DP  RH WIND       PRES   REMARKS
ASPEN          FAIR      43  12  28 S10       30.46R
BUENA VISTA    FAIR      47  -5  11 NW12      30.42R
COPPER MTN     FAIR      41 -18   7 W10       30.64S
BERTHOUD PASS  FAIR      32  23  69 NW21      30.65S WCI  20
COTTONWOOD PAS   N/A     55 N/A N/A SW12G17   30.52S
GUNNISON       FAIR      46   0  14 CALM      30.45R
KREMMLING      FAIR      50  10  20 CALM      30.43R
LEADVILLE      FAIR      36   1  22 N6        30.52S
MONARCH PASS   FAIR      39  -9  12 W24G32    30.74S
SALIDA         NOT AVBL
SUNLIGHT       FAIR      37  -4  17 SW10G16   30.62S
WILKERSON PASS FAIR      45 -17   7 NW7       30.63R
$$

COZ069>075-170300-
...SAN LUIS VALLEY/SANGRE DE CRISTO MOUNTAINS...

CITY           SKY/WX    TMP DP  RH WIND       PRES   REMARKS
ALAMOSA        FAIR      41  18  39 S6        30.38R
DEL NORTE      FAIR      47  14  26 W10       30.43S
LA VETA PASS   FAIR      46   9  21 S16G24    30.64S
SAGUACHE       FAIR      45  10  24 N9        30.44R
$$

COZ035-036-038>040-170300-
...NORTHERN COLORADO FRONT RANGE...

CITY           SKY/WX    TMP DP  RH WIND       PRES   REMARKS
DENVER INTL AP FAIR      68  10  10 CALM      30.24R
DMNS CITY PARK   N/A     56  21  25 SW3       30.25R
AURORA         PTCLDY    54  22  28 SW7       30.26R
FRONT RANGE AP PTCLDY    55  21  26 S3        30.25R
ERIE MUNI ARPT FAIR      48  26  43 SW3       30.28R
BOULDER MUN AP FAIR      59  19  21 S7        30.24R
CENTENNIAL     FAIR      52  21  29 S6        30.27R
BROOMFIELD     PTCLDY   N/A N/A N/A W9        30.26R
FORT COLLINS   FAIR      60  26  27 W3        30.23R
LONGMONT       FAIR      52  27  38 SW5       30.25R
$$

COZ041-046-047-076>085-087-088-170300-
...PIKES PEAK/PALMER DIVIDE AND SOUTHERN FOOTHILLS...

CITY           SKY/WX    TMP DP  RH WIND       PRES   REMARKS
COLO. SPRINGS  FAIR      53  18  25 N6        30.30R
A. F. ACADEMY  FAIR      45  19  35 N10       30.32R
SCHRIEVER AFB  FAIR      54  10  16 N10       30.30R
CHEYENNE MTN   FAIR      58   7  13 W6        30.29R
ELLICOTT       FAIR     N/A N/A N/A E12       30.28R
FALCON         FAIR      53   7  16 NW8       30.34S
FORT CARSON    FAIR      48  20  33 NW7       30.26R
LIMON          FAIR      40  22  48 CALM      30.25R
MONUMENT HILL  FAIR      43  16  33 S3        30.36S
CANON CITY     CLEAR     63  10  13 N9        30.23R
WALSENBURG     FAIR      61  12  15 W13       30.27S
TRINIDAD       FAIR      52  27  38 NW8       30.26R
$$

COZ042>045-048>051-090-091-170300-
...NORTHEAST COLORADO...

CITY           SKY/WX    TMP DP  RH WIND       PRES   REMARKS
GREELEY ARPT   FAIR      51  32  48 N6        30.22R
AKRON          FAIR      59  17  19 NE6       30.20
BURLINGTON     FAIR      58  29  33 SW5       30.18R
WRAY           FAIR      55  27  33 CALM      30.15R
YUMA           FAIR      52  21  30 N7        30.17R
STERLING       FAIR      52  28  40 N8        30.17R
HOLYOKE        FAIR      59  27  29 NW6       30.15S
FORT MORGAN    FAIR      56  16  21 N10       30.21R
$$

COZ086-089-092>099-170300-
...SOUTHEAST COLORADO...

CITY           SKY/WX    TMP DP  RH WIND       PRES   REMARKS
PUEBLO         FAIR      59  21  23 E7        30.19R
LA JUNTA       FAIR      62  24  23 S6        30.17R
LAMAR          FAIR      48  27  44 S6        30.13S
SPRINGFIELD      N/A     55  35  47 S10       30.21S
$$




USA.gov is the U.S. government's official web portal to all federal, state and local government web resources and services.